| time (UTC) | temp F | wind direction | speed knots | gust knots | rain 1hr in | rain 24hr in | rain mn in | humidity % | barometer mb |
| 20260510203024 | 84 | 197 | 0.9 | 2.6 | 0.00 | 0.00 | 0.00 | 27 | 1015.0 |
| 20260510202508 | 84 | 155 | 0.9 | 2.6 | 0.00 | 0.00 | 0.00 | 27 | 1015.0 |
| 20260510202009 | 84 | 217 | 0.9 | 1.7 | 0.00 | 0.00 | 0.00 | 27 | 1015.0 |
| 20260510201525 | 83 | 270 | 0.9 | 3.5 | 0.00 | 0.00 | 0.00 | 27 | 1015.2 |
| 20260510201009 | 83 | 285 | 0.9 | 5.2 | 0.00 | 0.00 | 0.00 | 26 | 1015.3 |
| 20260510200510 | 83 | 250 | 0.9 | 5.2 | 0.00 | 0.00 | 0.00 | 29 | 1015.3 |
| 20260510200028 | 83 | 183 | 0.9 | 3.5 | 0.00 | 0.00 | 0.00 | 26 | 1015.4 |
| 20260510195508 | 83 | 232 | 0.9 | 3.5 | 0.00 | 0.00 | 0.00 | 28 | 1015.4 |
| 20260510195004 | 82 | 269 | 0.0 | 4.3 | 0.00 | 0.00 | 0.00 | 29 | 1015.5 |
| 20260510194519 | 82 | 258 | 1.7 | 4.3 | 0.00 | 0.00 | 0.00 | 26 | 1015.5 |
| 20260510194004 | 83 | 221 | 1.7 | 4.3 | 0.00 | 0.00 | 0.00 | 28 | 1015.5 |
| 20260510193509 | 83 | 203 | 1.7 | 4.3 | 0.00 | 0.00 | 0.00 | 27 | 1015.6 |
| 20260510193021 | 82 | 200 | 0.9 | 3.5 | 0.00 | 0.00 | 0.00 | 27 | 1015.7 |
| 20260510192510 | 82 | 213 | 0.9 | 3.5 | 0.00 | 0.00 | 0.00 | 27 | 1015.6 |
| 20260510192007 | 82 | 162 | 0.9 | 3.5 | 0.00 | 0.00 | 0.00 | 27 | 1015.7 |
| 20260510191525 | 82 | 268 | 0.9 | 3.5 | 0.00 | 0.00 | 0.00 | 28 | 1015.8 |
| 20260510191009 | 82 | 193 | 0.9 | 3.5 | 0.00 | 0.00 | 0.00 | 28 | 1015.8 |
| 20260510190509 | 81 | 229 | 0.9 | 7.0 | 0.00 | 0.00 | 0.00 | 28 | 1015.8 |
| 20260510190026 | 81 | 216 | 1.7 | 7.0 | 0.00 | 0.00 | 0.00 | 28 | 1015.8 |
| 20260510185512 | 82 | 327 | 1.7 | 6.1 | 0.00 | 0.00 | 0.00 | 28 | 1015.8 |
| 20260510185016 | 81 | 151 | 0.9 | 6.1 | 0.00 | 0.00 | 0.00 | 32 | 1015.9 |
| 20260510184527 | 81 | 202 | 0.0 | 5.2 | 0.00 | 0.00 | 0.00 | 27 | 1015.9 |
| 20260510184011 | 81 | 120 | 1.7 | 5.2 | 0.00 | 0.00 | 0.00 | 26 | 1016.0 |
| 20260510183515 | 81 | 198 | 0.9 | 5.2 | 0.00 | 0.00 | 0.00 | 29 | 1016.0 |
| 20260510183020 | 81 | 222 | 0.9 | 5.2 | 0.00 | 0.00 | 0.00 | 28 | 1016.0 |
| 20260510182510 | 81 | 213 | 1.7 | 4.3 | 0.00 | 0.00 | 0.00 | 29 | 1016.0 |
| 20260510182012 | 80 | 217 | 0.0 | 3.5 | 0.00 | 0.00 | 0.00 | 30 | 1016.0 |
| 20260510181524 | 80 | 343 | 0.9 | 5.2 | 0.00 | 0.00 | 0.00 | 28 | 1016.1 |
| 20260510181009 | 80 | 256 | 1.7 | 5.2 | 0.00 | 0.00 | 0.00 | 29 | 1016.1 |
| 20260510180511 | 80 | 184 | 1.7 | 5.2 | 0.00 | 0.00 | 0.00 | 32 | 1016.1 |
| 20260510180026 | 79 | 292 | 0.9 | 7.8 | 0.00 | 0.00 | 0.00 | 30 | 1016.2 |
| 20260510175507 | 80 | 218 | 1.7 | 7.8 | 0.00 | 0.00 | 0.00 | 31 | 1016.3 |
| 20260510175006 | 80 | 82 | 0.9 | 3.5 | 0.00 | 0.00 | 0.00 | 30 | 1016.2 |
| 20260510174513 | 80 | 84 | 0.9 | 3.5 | 0.00 | 0.00 | 0.00 | 29 | 1016.3 |
| 20260510174005 | 79 | 265 | 0.0 | 3.5 | 0.00 | 0.00 | 0.00 | 29 | 1016.5 |
| 20260510173508 | 79 | 317 | 0.0 | 3.5 | 0.00 | 0.00 | 0.00 | 30 | 1016.4 |
| 20260510173017 | 79 | 343 | 0.9 | 3.5 | 0.00 | 0.00 | 0.00 | 28 | 1016.4 |
| 20260510172510 | 79 | 216 | 0.9 | 4.3 | 0.00 | 0.00 | 0.00 | 31 | 1016.5 |
| 20260510172010 | 80 | 275 | 0.9 | 4.3 | 0.00 | 0.00 | 0.00 | 30 | 1016.6 |
| 20260510171504 | 80 | 214 | 0.9 | 3.5 | 0.00 | 0.00 | 0.00 | 31 | 1016.6 |
| 20260510171003 | 80 | 117 | 1.7 | 5.2 | 0.00 | 0.00 | 0.00 | 29 | 1016.5 |
| 20260510170510 | 79 | 129 | 0.9 | 5.2 | 0.00 | 0.00 | 0.00 | 28 | 1016.5 |
| 20260510170006 | 79 | 119 | 2.6 | 6.1 | 0.00 | 0.00 | 0.00 | 28 | 1016.5 |
| 20260510165504 | 79 | 140 | 0.9 | 6.1 | 0.00 | 0.00 | 0.00 | 28 | 1016.6 |
| 20260510165005 | 79 | 131 | 1.7 | 6.1 | 0.00 | 0.00 | 0.00 | 26 | 1016.6 |
| 20260510164510 | 79 | 64 | 2.6 | 3.5 | 0.00 | 0.00 | 0.00 | 27 | 1016.6 |
| 20260510164009 | 79 | 215 | 1.7 | 3.5 | 0.00 | 0.00 | 0.00 | 26 | 1016.7 |
| 20260510163505 | 78 | 248 | 0.0 | 3.5 | 0.00 | 0.00 | 0.00 | 30 | 1016.8 |
| 20260510163014 | 79 | 236 | 0.9 | 3.5 | 0.00 | 0.00 | 0.00 | 29 | 1016.8 |
| 20260510162503 | 79 | 287 | 0.9 | 3.5 | 0.00 | 0.00 | 0.00 | 35 | 1016.9 |
| 20260510162008 | 79 | 103 | 0.9 | 3.5 | 0.00 | 0.00 | 0.00 | 37 | 1016.8 |
| 20260510161520 | 79 | 252 | 0.9 | 3.5 | 0.00 | 0.00 | 0.00 | 37 | 1016.8 |
| 20260510161011 | 79 | 311 | 0.9 | 3.5 | 0.00 | 0.00 | 0.00 | 37 | 1016.9 |
| 20260510160459 | 79 | 212 | 0.0 | 2.6 | 0.00 | 0.00 | 0.00 | 39 | 1017.0 |
| 20260510160006 | 79 | 126 | 0.9 | 2.6 | 0.00 | 0.00 | 0.00 | 38 | 1017.0 |
| 20260510155503 | 78 | 108 | 0.9 | 2.6 | 0.00 | 0.00 | 0.00 | 39 | 1017.0 |
| 20260510155008 | 78 | 20 | 0.0 | 2.6 | 0.00 | 0.00 | 0.00 | 42 | 1017.0 |
| 20260510154508 | 77 | 40 | 0.9 | 2.6 | 0.00 | 0.00 | 0.00 | 43 | 1017.1 |
| 20260510154008 | 77 | 115 | 0.9 | 2.6 | 0.00 | 0.00 | 0.00 | 41 | 1017.1 |
| 20260510153507 | 77 | 238 | 0.9 | 2.6 | 0.00 | 0.00 | 0.00 | 44 | 1017.1 |
| 20260510153018 | 77 | 204 | 0.9 | 2.6 | 0.00 | 0.00 | 0.00 | 45 | 1017.2 |
| 20260510152507 | 77 | 222 | 0.0 | 2.6 | 0.00 | 0.00 | 0.00 | 43 | 1017.2 |
| 20260510152007 | 77 | 68 | 0.9 | 2.6 | 0.00 | 0.00 | 0.00 | 46 | 1017.2 |
| 20260510151518 | 77 | 57 | 1.7 | 2.6 | 0.00 | 0.00 | 0.00 | 44 | 1017.1 |
| 20260510151004 | 76 | 92 | 0.9 | 1.7 | 0.00 | 0.00 | 0.00 | 46 | 1017.1 |
| 20260510150509 | 76 | 340 | 0.9 | 1.7 | 0.00 | 0.00 | 0.00 | 45 | 1017.1 |
| 20260510150027 | 76 | 248 | 0.9 | 2.6 | 0.00 | 0.00 | 0.00 | 47 | 1017.1 |
| 20260510145507 | 76 | 88 | 0.0 | 2.6 | 0.00 | 0.00 | 0.00 | 51 | 1017.2 |
| 20260510145002 | 75 | 68 | 0.0 | 2.6 | 0.00 | 0.00 | 0.00 | 52 | 1017.2 |
| 20260510144508 | 74 | 166 | 0.0 | 1.7 | 0.00 | 0.00 | 0.00 | 52 | 1017.2 |
| 20260510144004 | 73 | 22 | 0.0 | 2.6 | 0.00 | 0.00 | 0.00 | 57 | 1017.3 |
| 20260510143504 | 72 | 211 | 0.9 | 2.6 | 0.00 | 0.00 | 0.00 | 52 | 1017.2 |
| 20260510143012 | 73 | 236 | 0.0 | 2.6 | 0.00 | 0.00 | 0.00 | 53 | 1017.3 |
| 20260510142503 | 73 | 235 | 0.9 | 2.6 | 0.00 | 0.00 | 0.00 | 55 | 1017.3 |
| 20260510142005 | 73 | 236 | 0.0 | 1.7 | 0.00 | 0.00 | 0.00 | 57 | 1017.3 |
| 20260510141517 | 72 | 238 | 0.0 | 2.6 | 0.00 | 0.00 | 0.00 | 58 | 1017.4 |
| 20260510141005 | 72 | 207 | 0.0 | 2.6 | 0.00 | 0.00 | 0.00 | 59 | 1017.4 |
| 20260510140509 | 71 | 95 | 0.9 | 2.6 | 0.00 | 0.00 | 0.00 | 60 | 1017.3 |
| 20260510140018 | 71 | 64 | 1.7 | 2.6 | 0.00 | 0.00 | 0.00 | 60 | 1017.3 |
| 20260510135506 | 70 | 71 | 0.9 | 1.7 | 0.00 | 0.00 | 0.00 | 62 | 1017.3 |
| 20260510135008 | 70 | 84 | 0.9 | 1.7 | 0.00 | 0.00 | 0.00 | 65 | 1017.3 |
| 20260510134524 | 69 | 302 | 0.9 | 1.7 | 0.00 | 0.00 | 0.00 | 64 | 1017.3 |
| 20260510134003 | 69 | 280 | 0.0 | 2.6 | 0.00 | 0.00 | 0.00 | 66 | 1017.3 |
| 20260510133502 | 68 | 273 | 0.9 | 2.6 | 0.00 | 0.00 | 0.00 | 66 | 1017.2 |
| 20260510133009 | 68 | 274 | 0.9 | 1.7 | 0.00 | 0.00 | 0.00 | 69 | 1017.2 |
| 20260510132505 | 68 | 282 | 0.0 | 1.7 | 0.00 | 0.00 | 0.00 | 66 | 1017.1 |
| 20260510132004 | 68 | 242 | 0.0 | 1.7 | 0.00 | 0.00 | 0.00 | 68 | 1017.1 |
| 20260510131519 | 68 | 86 | 0.9 | 1.7 | 0.00 | 0.00 | 0.00 | 71 | 1017.1 |
| 20260510131004 | 67 | 171 | 0.0 | 1.7 | 0.00 | 0.00 | 0.00 | 73 | 1017.1 |
| 20260510130506 | 67 | 32 | 0.0 | 1.7 | 0.00 | 0.00 | 0.00 | 74 | 1017.1 |
| 20260510130018 | 66 | 67 | 0.0 | 1.7 | 0.00 | 0.00 | 0.00 | 75 | 1017.0 |
| 20260510125506 | 65 | 41 | 0.0 | 1.7 | 0.00 | 0.00 | 0.00 | 77 | 1017.0 |
| 20260510125011 | 64 | 38 | 0.0 | 1.7 | 0.00 | 0.00 | 0.00 | 80 | 1017.0 |
| 20260510124526 | 63 | 336 | 0.0 | 1.7 | 0.00 | 0.00 | 0.00 | 82 | 1017.0 |
| 20260510124011 | 62 | 290 | 0.0 | 1.7 | 0.00 | 0.00 | 0.00 | 84 | 1017.0 |
| 20260510123513 | 61 | 290 | 0.0 | 1.7 | 0.00 | 0.00 | 0.00 | 85 | 1016.9 |
| 20260510123006 | 60 | 286 | 0.0 | 1.7 | 0.00 | 0.00 | 0.00 | 86 | 1016.8 |
| 20260510122505 | 59 | 271 | 0.0 | 1.7 | 0.00 | 0.00 | 0.00 | 88 | 1016.7 |
| 20260510122005 | 59 | 274 | 0.0 | 1.7 | 0.00 | 0.00 | 0.00 | 89 | 1016.6 |
| 20260510121512 | 58 | 292 | 0.0 | 1.7 | 0.00 | 0.00 | 0.00 | 90 | 1016.5 |
| 20260510121007 | 58 | 297 | 0.0 | 1.7 | 0.00 | 0.00 | 0.00 | 91 | 1016.5 |
| 20260510120508 | 57 | 297 | 0.0 | 1.7 | 0.00 | 0.00 | 0.00 | 92 | 1016.4 |
| 20260510120027 | 57 | 316 | 0.0 | 1.7 | 0.00 | 0.00 | 0.00 | 93 | 1016.2 |
| 20260510115503 | 57 | 9 | 0.0 | 1.7 | 0.00 | 0.00 | 0.00 | 93 | 1016.1 |
| 20260510115007 | 56 | 63 | 0.0 | 1.7 | 0.00 | 0.00 | 0.00 | 94 | 1016.0 |
| 20260510114522 | 56 | 96 | 0.0 | 0.9 | 0.00 | 0.00 | 0.00 | 94 | 1016.0 |
| 20260510114011 | 56 | 96 | 0.0 | 0.9 | 0.00 | 0.00 | 0.00 | 94 | 1015.9 |
| 20260510113506 | 55 | 105 | 0.0 | 1.7 | 0.00 | 0.00 | 0.00 | 94 | 1015.9 |
| 20260510113026 | 55 | 112 | 0.0 | 1.7 | 0.00 | 0.00 | 0.00 | 94 | 1015.8 |
| 20260510112511 | 55 | 112 | 0.0 | 0.0 | 0.00 | 0.00 | 0.00 | 94 | 1015.7 |
| 20260510112004 | 55 | 112 | 0.0 | 0.0 | 0.00 | 0.00 | 0.00 | 94 | 1015.8 |
| 20260510111527 | 55 | 112 | 0.0 | 0.0 | 0.00 | 0.00 | 0.00 | 94 | 1015.7 |
| 20260510111003 | 54 | 112 | 0.0 | 0.0 | 0.00 | 0.00 | 0.00 | 94 | 1015.6 |
| 20260510110508 | 54 | 112 | 0.0 | 0.0 | 0.00 | 0.00 | 0.00 | 93 | 1015.5 |
| 20260510110023 | 54 | 112 | 0.0 | 0.0 | 0.00 | 0.00 | 0.00 | 93 | 1015.4 |
| 20260510105504 | 54 | 112 | 0.0 | 0.0 | 0.00 | 0.00 | 0.00 | 93 | 1015.3 |
| 20260510105004 | 54 | 112 | 0.0 | 0.0 | 0.00 | 0.00 | 0.00 | 93 | 1015.3 |
| 20260510104520 | 54 | 112 | 0.0 | 0.0 | 0.00 | 0.00 | 0.00 | 93 | 1015.2 |
| 20260510104004 | 54 | 112 | 0.0 | 0.0 | 0.00 | 0.00 | 0.00 | 93 | 1015.0 |
| 20260510103508 | 54 | 112 | 0.0 | 0.0 | 0.00 | 0.00 | 0.00 | 93 | 1014.9 |
| 20260510103023 | 54 | 112 | 0.0 | 0.0 | 0.00 | 0.00 | 0.00 | 92 | 1014.8 |
| 20260510102509 | 54 | 112 | 0.0 | 0.0 | 0.00 | 0.00 | 0.00 | 93 | 1014.7 |
| 20260510102009 | 54 | 112 | 0.0 | 0.0 | 0.00 | 0.00 | 0.00 | 93 | 1014.6 |
| 20260510101526 | 55 | 112 | 0.0 | 0.0 | 0.00 | 0.00 | 0.00 | 93 | 1014.5 |
| 20260510101008 | 55 | 112 | 0.0 | 0.0 | 0.00 | 0.00 | 0.00 | 93 | 1014.5 |
| 20260510100504 | 55 | 112 | 0.0 | 0.0 | 0.00 | 0.00 | 0.00 | 92 | 1014.5 |
| 20260510100010 | 55 | 112 | 0.0 | 0.0 | 0.00 | 0.00 | 0.00 | 92 | 1014.4 |
| 20260510095506 | 55 | 112 | 0.0 | 0.0 | 0.00 | 0.00 | 0.00 | 92 | 1014.3 |
| 20260510095003 | 55 | 112 | 0.0 | 0.0 | 0.00 | 0.00 | 0.00 | 92 | 1014.3 |
| 20260510094525 | 55 | 112 | 0.0 | 1.7 | 0.00 | 0.00 | 0.00 | 93 | 1014.2 |
| 20260510094007 | 56 | 112 | 0.0 | 1.7 | 0.00 | 0.00 | 0.00 | 93 | 1014.2 |
| 20260510093508 | 56 | 112 | 0.0 | 1.7 | 0.00 | 0.00 | 0.00 | 93 | 1014.3 |
| 20260510093020 | 56 | 112 | 0.0 | 0.0 | 0.00 | 0.00 | 0.00 | 92 | 1014.3 |
| 20260510092510 | 56 | 112 | 0.0 | 0.0 | 0.00 | 0.00 | 0.00 | 92 | 1014.2 |
| 20260510092013 | 56 | 112 | 0.0 | 0.0 | 0.00 | 0.00 | 0.00 | 92 | 1014.2 |
| 20260510091527 | 56 | 112 | 0.0 | 0.0 | 0.00 | 0.00 | 0.00 | 92 | 1014.1 |
| 20260510091007 | 56 | 112 | 0.0 | 0.0 | 0.00 | 0.00 | 0.00 | 92 | 1014.1 |
| 20260510090510 | 56 | 112 | 0.0 | 0.0 | 0.00 | 0.00 | 0.00 | 92 | 1014.0 |
| 20260510090024 | 56 | 112 | 0.0 | 0.0 | 0.00 | 0.00 | 0.00 | 92 | 1014.0 |
| 20260510085506 | 56 | 112 | 0.0 | 0.0 | 0.00 | 0.00 | 0.00 | 92 | 1014.0 |
| 20260510085005 | 57 | 112 | 0.0 | 0.0 | 0.00 | 0.00 | 0.00 | 92 | 1013.8 |
| 20260510084514 | 57 | 112 | 0.0 | 0.0 | 0.00 | 0.00 | 0.00 | 92 | 1013.7 |
| 20260510084006 | 57 | 112 | 0.0 | 0.0 | 0.00 | 0.00 | 0.00 | 92 | 1013.7 |
| 20260510083509 | 57 | 112 | 0.0 | 0.0 | 0.00 | 0.00 | 0.00 | 92 | 1013.6 |
| 20260510083020 | 57 | 112 | 0.0 | 0.0 | 0.00 | 0.00 | 0.00 | 92 | 1013.5 |
| 20260510082504 | 57 | 112 | 0.0 | 0.0 | 0.00 | 0.00 | 0.00 | 92 | 1013.6 |
| 20260510082011 | 57 | 112 | 0.0 | 0.0 | 0.00 | 0.00 | 0.00 | 92 | 1013.6 |
| 20260510081522 | 57 | 112 | 0.0 | 0.0 | 0.00 | 0.00 | 0.00 | 92 | 1013.5 |
| 20260510081006 | 57 | 112 | 0.0 | 0.0 | 0.00 | 0.00 | 0.00 | 92 | 1013.4 |
| 20260510080509 | 57 | 112 | 0.0 | 0.0 | 0.00 | 0.00 | 0.00 | 92 | 1013.3 |
| 20260510080029 | 58 | 112 | 0.0 | 0.0 | 0.00 | 0.00 | 0.00 | 92 | 1013.3 |
| 20260510075511 | 58 | 112 | 0.0 | 0.0 | 0.00 | 0.00 | 0.00 | 92 | 1013.2 |
| 20260510075007 | 58 | 112 | 0.0 | 0.0 | 0.00 | 0.00 | 0.00 | 92 | 1013.2 |
| 20260510074533 | 58 | 112 | 0.0 | 0.0 | 0.00 | 0.00 | 0.00 | 92 | 1013.2 |
| 20260510074006 | 58 | 112 | 0.0 | 0.0 | 0.00 | 0.00 | 0.00 | 92 | 1013.1 |
| 20260510073507 | 58 | 112 | 0.0 | 0.0 | 0.00 | 0.00 | 0.00 | 91 | 1013.1 |
| 20260510073016 | 58 | 112 | 0.0 | 0.0 | 0.00 | 0.00 | 0.00 | 92 | 1013.1 |
| 20260510072506 | 58 | 112 | 0.0 | 0.0 | 0.00 | 0.00 | 0.00 | 92 | 1013.1 |
| 20260510072007 | 58 | 112 | 0.0 | 0.0 | 0.00 | 0.00 | 0.00 | 91 | 1013.1 |
| 20260510071519 | 58 | 112 | 0.0 | 0.0 | 0.00 | 0.00 | 0.00 | 91 | 1013.0 |
| 20260510071004 | 59 | 112 | 0.0 | 0.0 | 0.00 | 0.00 | 0.00 | 91 | 1013.1 |
| 20260510070505 | 59 | 112 | 0.0 | 0.0 | 0.00 | 0.00 | 0.00 | 91 | 1013.1 |
| 20260510070025 | 59 | 112 | 0.0 | 0.0 | 0.00 | 0.00 | 0.00 | 91 | 1013.1 |
| 20260510065507 | 59 | 112 | 0.0 | 0.0 | 0.00 | 0.00 | 0.00 | 91 | 1013.0 |
| 20260510065007 | 59 | 112 | 0.0 | 0.0 | 0.00 | 0.00 | 0.00 | 91 | 1013.0 |
| 20260510064530 | 59 | 112 | 0.0 | 0.0 | 0.00 | 0.00 | 0.00 | 91 | 1013.0 |
| 20260510064010 | 59 | 112 | 0.0 | 0.0 | 0.00 | 0.00 | 0.00 | 91 | 1013.0 |
| 20260510063510 | 59 | 112 | 0.0 | 0.0 | 0.00 | 0.00 | 0.00 | 91 | 1013.0 |
| 20260510063014 | 59 | 112 | 0.0 | 0.0 | 0.00 | 0.00 | 0.00 | 91 | 1013.1 |
| 20260510062512 | 59 | 112 | 0.0 | 1.7 | 0.00 | 0.00 | 0.00 | 91 | 1013.0 |
| 20260510062008 | 59 | 112 | 0.0 | 1.7 | 0.00 | 0.00 | 0.00 | 91 | 1013.0 |
| 20260510061527 | 59 | 112 | 0.0 | 1.7 | 0.00 | 0.00 | 0.00 | 91 | 1013.1 |
| 20260510061011 | 60 | 112 | 0.0 | 0.0 | 0.00 | 0.00 | 0.00 | 90 | 1013.2 |
| 20260510060508 | 60 | 112 | 0.0 | 0.0 | 0.00 | 0.00 | 0.00 | 90 | 1013.3 |
| 20260510060042 | 60 | 112 | 0.0 | 0.0 | 0.00 | 0.00 | 0.00 | 90 | 1013.3 |
| 20260510055508 | 60 | 112 | 0.0 | 0.0 | 0.00 | 0.00 | 0.00 | 90 | 1013.3 |
| 20260510055012 | 60 | 112 | 0.0 | 1.7 | 0.00 | 0.00 | 0.00 | 90 | 1013.2 |
| 20260510054525 | 60 | 112 | 0.0 | 1.7 | 0.00 | 0.00 | 0.00 | 89 | 1013.2 |
| 20260510054010 | 60 | 112 | 0.0 | 0.0 | 0.00 | 0.00 | 0.00 | 89 | 1013.2 |
| 20260510053507 | 60 | 112 | 0.0 | 1.7 | 0.00 | 0.00 | 0.00 | 89 | 1013.1 |
| 20260510053027 | 61 | 112 | 0.0 | 1.7 | 0.00 | 0.00 | 0.00 | 89 | 1013.1 |
| 20260510052508 | 61 | 112 | 0.0 | 0.0 | 0.00 | 0.00 | 0.00 | 88 | 1013.3 |
| 20260510052009 | 61 | 112 | 0.0 | 1.7 | 0.00 | 0.00 | 0.00 | 88 | 1013.3 |
| 20260510051516 | 61 | 112 | 0.0 | 1.7 | 0.00 | 0.00 | 0.00 | 88 | 1013.3 |
| 20260510051011 | 61 | 112 | 0.0 | 1.7 | 0.00 | 0.00 | 0.00 | 88 | 1013.3 |
| 20260510050510 | 61 | 112 | 0.0 | 0.0 | 0.00 | 0.00 | 0.00 | 87 | 1013.2 |
| 20260510050023 | 61 | 112 | 0.0 | 0.0 | 0.00 | 0.00 | 0.00 | 87 | 1013.2 |
| 20260510045508 | 62 | 112 | 0.0 | 0.0 | 0.00 | 0.00 | 0.00 | 86 | 1013.2 |
| 20260510045008 | 62 | 112 | 0.0 | 1.7 | 0.00 | 0.00 | 0.00 | 86 | 1013.2 |
| 20260510044524 | 62 | 112 | 0.0 | 1.7 | 0.00 | 0.00 | 0.00 | 86 | 1013.3 |
| 20260510044014 | 62 | 112 | 0.0 | 0.9 | 0.00 | 0.00 | 0.00 | 86 | 1013.3 |
| 20260510043512 | 62 | 112 | 0.0 | 1.7 | 0.00 | 0.00 | 0.00 | 86 | 1013.4 |
| 20260510043027 | 62 | 112 | 0.0 | 1.7 | 0.00 | 0.00 | 0.00 | 85 | 1013.3 |
| 20260510042507 | 62 | 112 | 0.0 | 0.9 | 0.00 | 0.00 | 0.00 | 85 | 1013.4 |
| 20260510042010 | 63 | 112 | 0.0 | 1.7 | 0.00 | 0.00 | 0.00 | 85 | 1013.4 |
| 20260510041531 | 63 | 105 | 0.0 | 1.7 | 0.00 | 0.00 | 0.00 | 85 | 1013.4 |
| 20260510041008 | 63 | 105 | 0.0 | 0.0 | 0.00 | 0.00 | 0.00 | 84 | 1013.2 |
| 20260510040507 | 63 | 105 | 0.0 | 0.0 | 0.00 | 0.00 | 0.00 | 84 | 1013.2 |
| 20260510040020 | 63 | 105 | 0.0 | 1.7 | 0.00 | 0.00 | 0.00 | 84 | 1013.2 |
| 20260510035507 | 63 | 105 | 0.0 | 1.7 | 0.00 | 0.00 | 0.00 | 83 | 1013.3 |
| 20260510035008 | 63 | 105 | 0.0 | 1.7 | 0.00 | 0.00 | 0.00 | 83 | 1013.3 |
| 20260510034522 | 64 | 105 | 0.0 | 1.7 | 0.00 | 0.00 | 0.00 | 83 | 1013.2 |
| 20260510034010 | 64 | 105 | 0.0 | 1.7 | 0.00 | 0.00 | 0.00 | 83 | 1013.2 |
| 20260510033509 | 64 | 105 | 0.0 | 1.7 | 0.00 | 0.00 | 0.00 | 82 | 1013.3 |
| 20260510033026 | 64 | 105 | 0.0 | 1.7 | 0.00 | 0.00 | 0.00 | 82 | 1013.2 |
| 20260510032511 | 64 | 105 | 0.0 | 1.7 | 0.00 | 0.00 | 0.00 | 82 | 1013.3 |
| 20260510032012 | 64 | 105 | 0.0 | 1.7 | 0.00 | 0.00 | 0.00 | 82 | 1013.3 |
| 20260510031545 | 64 | 105 | 0.0 | 1.7 | 0.00 | 0.00 | 0.00 | 82 | 1013.3 |
| 20260510031010 | 64 | 105 | 0.0 | 0.0 | 0.00 | 0.00 | 0.00 | 81 | 1013.3 |
| 20260510030507 | 64 | 105 | 0.0 | 0.0 | 0.00 | 0.00 | 0.00 | 81 | 1013.2 |
| 20260510030029 | 64 | 105 | 0.0 | 0.0 | 0.00 | 0.00 | 0.00 | 80 | 1013.3 |
| 20260510025507 | 64 | 105 | 0.0 | 0.0 | 0.00 | 0.00 | 0.00 | 80 | 1013.2 |
| 20260510025012 | 65 | 105 | 0.0 | 0.0 | 0.00 | 0.00 | 0.00 | 80 | 1013.2 |
| 20260510024535 | 65 | 105 | 0.0 | 0.0 | 0.00 | 0.00 | 0.00 | 80 | 1013.2 |
| 20260510024003 | 65 | 105 | 0.0 | 0.0 | 0.00 | 0.00 | 0.00 | 79 | 1013.1 |
| 20260510023503 | 65 | 105 | 0.0 | 1.7 | 0.00 | 0.00 | 0.00 | 78 | 1013.1 |
| 20260510023013 | 65 | 105 | 0.0 | 1.7 | 0.00 | 0.00 | 0.00 | 78 | 1013.1 |
| 20260510022504 | 66 | 105 | 0.0 | 1.7 | 0.00 | 0.00 | 0.00 | 77 | 1013.1 |
| 20260510022004 | 66 | 105 | 0.0 | 1.7 | 0.00 | 0.00 | 0.00 | 77 | 1013.0 |
| 20260510021510 | 66 | 105 | 0.0 | 1.7 | 0.00 | 0.00 | 0.00 | 76 | 1012.9 |
| 20260510021003 | 66 | 105 | 0.0 | 1.7 | 0.00 | 0.00 | 0.00 | 76 | 1012.8 |
| 20260510020506 | 66 | 105 | 0.0 | 1.7 | 0.00 | 0.00 | 0.00 | 76 | 1012.8 |
| 20260510020016 | 67 | 105 | 0.9 | 1.7 | 0.00 | 0.00 | 0.00 | 75 | 1012.8 |
| 20260510015507 | 67 | 180 | 0.0 | 1.7 | 0.00 | 0.00 | 0.00 | 75 | 1012.8 |
| 20260510015003 | 67 | 180 | 0.0 | 1.7 | 0.00 | 0.00 | 0.00 | 74 | 1012.7 |
| 20260510014532 | 67 | 180 | 0.0 | 1.7 | 0.00 | 0.00 | 0.00 | 74 | 1012.7 |
| 20260510014007 | 67 | 180 | 0.0 | 1.7 | 0.00 | 0.00 | 0.00 | 74 | 1012.7 |
| 20260510013510 | 67 | 176 | 0.0 | 1.7 | 0.00 | 0.00 | 0.00 | 74 | 1012.5 |
| 20260510013010 | 67 | 176 | 0.0 | 0.0 | 0.00 | 0.00 | 0.00 | 73 | 1012.4 |
| 20260510012505 | 68 | 176 | 0.0 | 1.7 | 0.00 | 0.00 | 0.00 | 73 | 1012.4 |
| 20260510012004 | 68 | 176 | 0.0 | 1.7 | 0.00 | 0.00 | 0.00 | 72 | 1012.4 |
| 20260510011512 | 68 | 176 | 0.0 | 1.7 | 0.00 | 0.00 | 0.00 | 72 | 1012.3 |
| 20260510011008 | 68 | 176 | 0.0 | 1.7 | 0.00 | 0.00 | 0.00 | 72 | 1012.1 |
| 20260510010504 | 68 | 128 | 0.0 | 1.7 | 0.00 | 0.00 | 0.00 | 71 | 1012.0 |
| 20260510010016 | 68 | 116 | 0.0 | 1.7 | 0.00 | 0.00 | 0.00 | 71 | 1012.0 |
| 20260510005507 | 69 | 116 | 0.0 | 1.7 | 0.00 | 0.00 | 0.00 | 70 | 1011.9 |
| 20260510005004 | 69 | 126 | 0.0 | 1.7 | 0.00 | 0.00 | 0.00 | 70 | 1011.6 |
| 20260510004519 | 69 | 135 | 0.0 | 1.7 | 0.00 | 0.00 | 0.00 | 69 | 1011.6 |
| 20260510004008 | 69 | 179 | 0.0 | 1.7 | 0.00 | 0.00 | 0.00 | 69 | 1011.5 |
| 20260510003507 | 70 | 170 | 0.0 | 1.7 | 0.00 | 0.00 | 0.00 | 69 | 1011.5 |
| 20260510003024 | 70 | 168 | 0.0 | 1.7 | 0.00 | 0.00 | 0.00 | 68 | 1011.4 |
| 20260510002510 | 70 | 184 | 0.0 | 1.7 | 0.00 | 0.00 | 0.00 | 68 | 1011.4 |
| 20260510002010 | 70 | 223 | 0.0 | 1.7 | 0.00 | 0.00 | 0.00 | 67 | 1011.2 |
| 20260510001505 | 70 | 223 | 0.0 | 1.7 | 0.00 | 0.00 | 0.00 | 67 | 1011.1 |
| 20260510001004 | 70 | 223 | 0.0 | 1.7 | 0.00 | 0.00 | 0.00 | 67 | 1011.2 |
| 20260510000505 | 71 | 271 | 0.0 | 1.7 | 0.00 | 0.00 | 0.00 | 66 | 1011.2 |
| 20260510000009 | 71 | 267 | 0.0 | 2.6 | 0.00 | 0.00 | 0.00 | 66 | 1011.1 |
| 20260509235504 | 71 | 133 | 0.0 | 2.6 | 0.00 | 0.00 | 0.00 | 66 | 1010.9 |
| 20260509235004 | 71 | 105 | 0.9 | 2.6 | 0.00 | 0.00 | 0.00 | 65 | 1011.0 |
| 20260509234519 | 71 | 183 | 0.0 | 1.7 | 0.00 | 0.00 | 0.00 | 65 | 1010.9 |
| 20260509234005 | 71 | 96 | 0.9 | 1.7 | 0.00 | 0.00 | 0.00 | 65 | 1010.9 |
| 20260509233505 | 71 | 209 | 0.0 | 2.6 | 0.00 | 0.00 | 0.00 | 64 | 1010.9 |
| 20260509233022 | 72 | 199 | 0.9 | 2.6 | 0.00 | 0.00 | 0.00 | 64 | 1011.0 |
| 20260509232509 | 72 | 236 | 0.0 | 1.7 | 0.00 | 0.00 | 0.00 | 64 | 1010.9 |
| 20260509232007 | 72 | 210 | 0.9 | 2.6 | 0.00 | 0.00 | 0.00 | 64 | 1010.6 |
| 20260509231524 | 72 | 217 | 0.9 | 2.6 | 0.00 | 0.00 | 0.00 | 62 | 1010.4 |
| 20260509231009 | 73 | 245 | 0.9 | 2.6 | 0.00 | 0.00 | 0.00 | 62 | 1010.5 |
| 20260509230503 | 73 | 232 | 0.0 | 8.7 | 0.00 | 0.00 | 0.00 | 62 | 1010.4 |
| 20260509230008 | 73 | 215 | 0.9 | 8.7 | 0.00 | 0.00 | 0.00 | 62 | 1010.4 |
| 20260509225504 | 73 | 142 | 1.7 | 7.0 | 0.00 | 0.00 | 0.00 | 61 | 1010.3 |
| 20260509225002 | 73 | 190 | 0.9 | 2.6 | 0.00 | 0.00 | 0.00 | 60 | 1010.4 |
| 20260509224514 | 73 | 251 | 0.9 | 2.6 | 0.00 | 0.00 | 0.00 | 60 | 1010.2 |
| 20260509224004 | 73 | 240 | 0.9 | 2.6 | 0.00 | 0.00 | 0.00 | 59 | 1010.1 |
| 20260509223511 | 73 | 204 | 0.9 | 1.7 | 0.00 | 0.00 | 0.00 | 59 | 1010.0 |
| 20260509223020 | 73 | 234 | 0.0 | 1.7 | 0.00 | 0.00 | 0.00 | 59 | 1010.0 |
| 20260509222509 | 74 | 240 | 0.9 | 2.6 | 0.00 | 0.00 | 0.00 | 58 | 1010.0 |
| 20260509222009 | 74 | 211 | 0.0 | 3.5 | 0.00 | 0.00 | 0.00 | 58 | 1010.1 |
| 20260509221526 | 74 | 207 | 1.7 | 3.5 | 0.00 | 0.00 | 0.00 | 58 | 1010.1 |
| 20260509221007 | 75 | 243 | 0.9 | 3.5 | 0.00 | 0.00 | 0.00 | 57 | 1010.0 |
| 20260509220508 | 75 | 224 | 0.9 | 3.5 | 0.00 | 0.00 | 0.00 | 57 | 1010.0 |
| 20260509220025 | 75 | 233 | 0.9 | 3.5 | 0.00 | 0.00 | 0.00 | 57 | 1010.0 |
| 20260509215510 | 75 | 225 | 0.9 | 3.5 | 0.00 | 0.00 | 0.00 | 56 | 1010.0 |
| 20260509215006 | 75 | 180 | 0.9 | 5.2 | 0.00 | 0.00 | 0.00 | 54 | 1010.1 |
| 20260509214525 | 75 | 223 | 2.6 | 5.2 | 0.00 | 0.00 | 0.00 | 54 | 1010.1 |
| 20260509214007 | 76 | 177 | 0.9 | 4.3 | 0.00 | 0.00 | 0.00 | 54 | 1010.0 |
| 20260509213505 | 76 | 196 | 1.7 | 5.2 | 0.00 | 0.00 | 0.00 | 54 | 1010.1 |
| 20260509213016 | 75 | 220 | 1.7 | 5.2 | 0.00 | 0.00 | 0.00 | 55 | 1010.0 |
| 20260509212505 | 76 | 116 | 0.9 | 5.2 | 0.00 | 0.00 | 0.00 | 55 | 1010.0 |
| 20260509212006 | 75 | 215 | 0.9 | 3.5 | 0.00 | 0.00 | 0.00 | 55 | 1009.9 |
| 20260509211545 | 75 | 225 | 1.7 | 4.3 | 0.00 | 0.00 | 0.00 | 54 | 1009.9 |
| 20260509211010 | 75 | 250 | 1.7 | 4.3 | 0.00 | 0.00 | 0.00 | 55 | 1010.1 |
| 20260509210506 | 75 | 304 | 1.7 | 3.5 | 0.00 | 0.00 | 0.00 | 56 | 1009.9 |
| 20260509210022 | 75 | 207 | 0.9 | 5.2 | 0.00 | 0.00 | 0.00 | 57 | 1009.9 |
| 20260509205507 | 75 | 214 | 1.7 | 5.2 | 0.00 | 0.00 | 0.00 | 57 | 1009.9 |
| 20260509205014 | 74 | 76 | 1.7 | 4.3 | 0.00 | 0.00 | 0.00 | 56 | 1009.9 |
| 20260509204510 | 75 | 98 | 0.9 | 7.8 | 0.00 | 0.00 | 0.00 | 56 | 1009.8 |
| 20260509204006 | 75 | 192 | 0.9 | 7.8 | 0.00 | 0.00 | 0.00 | 56 | 1009.7 |
| 20260509203506 | 75 | 143 | 0.0 | 5.2 | 0.00 | 0.00 | 0.00 | 56 | 1009.7 |